Location: Namasale
(1.5000°N, 32.6167°E)
Time: 21:56:02
(UTC+00:00)

Vanguard 3 - Pass Details

Date: 20 April 2021
Orbit: 507 x 3262 km, 33.4° (Epoch: 16 May)

Event Time Altitude Azimuth Distance (km) Brightness Sun altitude
Rises 19:53:17 0° 243° (WSW) 6,349 12.0 -58.5°
Reaches altitude 10° 19:58:17 10° 248° (WSW) 4,918 11.3 -59.6°
Enters shadow 20:02:37 22° 254° (WSW) 3,640 10.5 -60.6°
